User: anonymous   Login
Location: Bothell
(47.7630°N, 122.2040°W)
Time: 11:44:00
(UTC-07:00)
Language:

Oscar 16 - Orbit

View from above orbital plane
View from above orbital plane
View from above satellite
View from above satellite

Ground track
Ground track

The orbit data is extracted from the following two-line orbital elements,

1 20439U 90005D   17205.41048066 +.00000001 +00000-0 +16696-4 0  9999
2 20439 098.6104 144.4878 0011857 056.1081 065.5057 14.32686458436487
Epoch (UTC): 24 July 2017 09:51:05
Eccentricity: 0.0011857
inclination: 98.6104°
perigee height: 774 km
apogee height: 791 km
right ascension of ascending node: 144.4878°
argument of perigee: 56.1081°
revolutions per day: 14.32686458
mean anomaly at epoch: 65.5057°
orbit number at epoch: 43648

The dashed part of the orbit path shows where the satellite is in the earth's shadow,  

DLR